Regional Weather Roundup
Issued by NWS

Home | Current Version | Previous Version | Text Only | Print | Product List | Glossary On
Versions: 1 2 3 4 5 6 7 8 9 10 11 12 13 14 15 16 17 18 19 20 21 22 23 24 25 26 27 28 29 30 31 32 33 34 35 36 37 38 39 40 41 42 43 44 45 46 47 48 49 50
000
ASUS43 KMPX 011510
RWRMN
WEATHER ROUNDUP FOR MINNESOTA
NATIONAL WEATHER SERVICE TWIN CITIES/CHANHASSEN MN
900 AM CST SUN MAR 01 2015


NOTE: "FAIR" INDICATES FEW OR NO CLOUDS BELOW 12,000 FEET WITH NO
SIGNIFICANT WEATHER AND/OR OBSTRUCTIONS TO VISIBILITY. N/A MEANS
CURRENT SKY AND/OR WEATHER CONDITIONS ARE NOT AVAILABLE.

MNZ060>063-068>070-011600-
   Twin Cities Metro

CITY           SKY/WX    TMP DP  RH WIND       PRES   REMARKS
TWIN CITIES    PTSUNNY   17   8  67 W13       30.26R WCI   4
ST PAUL        LGT SNOW  17  12  80 SW9       30.27R WCI   6
CRYSTAL        MOSUNNY   17   6  62 W13G21    30.25R WCI   4
BLAINE         PTSUNNY   18  12  79 W13       30.23R WCI   4
LAKEVILLE      MOSUNNY   12   9  85 W10       30.26R WCI  -1
EDEN PRAIRIE   SUNNY     15   6  67 W12       30.25R WCI   2
SOUTH ST PAUL  LGT SNOW  18  12  77 W10       30.25R WCI   6
LAKE ELMO      LGT SNOW  19  14  79 W10       30.24R WCI   8
$$
MNZ001>005-007-008-013>017-022>024-027-028-011600-
   Northwest Minnesota

CITY           SKY/WX    TMP DP  RH WIND       PRES   REMARKS
BEMIDJI        SUNNY      3  -2  79 SW8       30.12R WCI -10
HALLOCK        SUNNY      0  -6  78 SW2       30.13R
ROSEAU         SUNNY      1  -4  78 SW8       30.10R WCI -12
WARROAD        FLURRIES   1  -4  78 SW7       30.09R WCI -11
THIEF RVR FALL SUNNY      0 -11  60 SW12      30.12R WCI -18
CROOKSTON      MOSUNNY    1  -2  85 SW9       30.18R WCI -14
FOSSTON        LGT SNOW  -2  -6  84 S10       30.14R WCI -19
DETROIT LAKES  SUNNY      5   1  85 SW3       30.18R
MOORHEAD       SUNNY     10   7  85 SW8       30.22R WCI  -1
PARK RAPIDS    SUNNY      5   0  79 W8        30.15R WCI  -8
MAHNOMEN       FAIR       0  -4  84 SW10      30.16R WCI -16
$$
MNZ006-009>011-018-025>026-011600-
   North Central Minnesota

CITY           SKY/WX    TMP DP  RH WIND       PRES   REMARKS
BAUDETTE       SUNNY      0  -5  79 W6        30.08R WCI -12
FLAG ISLAND    SUNNY      0  -6  78 CALM      30.07R
INTL FALLS     SUNNY      5  -1  76 SW7       30.07S WCI  -7
WASKISH        SUNNY      7   1  78 SW12      30.10R WCI  -9
BIG FORK       SUNNY      7   1  78 SW9       30.09S WCI  -7
LONGVILLE      SUNNY      9   1  72 SW5       30.15R WCI   0
GRAND RAPIDS   SUNNY      9   1  72 W8        30.11R WCI  -4
CRANE LAKE     SUNNY      9   1  72 W3        30.10R
ORR            SUNNY      9   1  72 SW8       30.05R WCI  -4
COOK           SUNNY     10   3  72 W7        30.08S WCI   0
WALKER         FAIR       5  -1  76 W8        30.14R WCI  -8
$$
MNZ012-019>021-037-011600-
   Northeast Minnesota

CITY           SKY/WX    TMP DP  RH WIND       PRES   REMARKS
DULUTH         LGT SNOW  14   7  73 W12       30.09R WCI   0
ELY            MOSUNNY   12   9  85 SW9         N/A  WCI   0
HIBBING        SUNNY     12   2  64 W9        30.08S WCI   0
EVELETH        SUNNY     12   5  73 W8        30.09S WCI   1
DULUTH HARBOR  CLOUDY    18  12  79 SW12      30.17R WCI   5
SILVER BAY     LGT SNOW  16   9  73 SW5       30.07F WCI   9
GRAND MARAIS     N/A     19  10  68 VRB7      30.11F WCI  10
G MARAIS ARPRT LGT SNOW  12   5  73 SW6       30.00S WCI   3
$$
MNZ029>031-032-039>041-046>048-054>057-064-011600-
   West Central Minnesota

CITY           SKY/WX    TMP DP  RH WIND       PRES   REMARKS
FERGUS FALLS   SUNNY      5   0  78 S3        30.26S
MORRIS         SUNNY     12   5  73 W12       30.24S WCI  -2
ALEXANDRIA     SUNNY      7   1  76 W6        30.21S WCI  -3
ELBOW LAKE     FAIR       7   1  79 SW8       30.22S WCI  -6
WADENA         SUNNY      3   0  85 SW9       30.19R WCI -11
APPLETON       MOSUNNY   10   3  72 W3        30.27F
BENSON         MOSUNNY   12   3  67 NW7       30.26S WCI   2
ORTONVILLE     MOSUNNY   10   1  67 CALM      30.26S
MADISON        MOSUNNY   12   5  73 SW3       30.28S
WILLMAR        FAIR      10   3  72 W8        30.28R WCI  -1
$$
MNZ033>034-036-042>043-049>051-058-059-011600-
   Central Minnesota

CITY           SKY/WX    TMP DP  RH WIND       PRES   REMARKS
ST CLOUD       SUNNY     11   3  70 W12       30.23S WCI  -3
SAUK CENTRE    FAIR       8   2  77 W6        30.24R WCI  -2
PAYNESVILLE    MOSUNNY    8   3  79 SW13      30.25R WCI  -8
PINE RIVER     SUNNY      7   1  78 W6        30.20R WCI  -3
BRAINERD       SUNNY      7   1  76 W13       30.20R WCI  -9
STAPLES        SUNNY      7   1  78 W6        30.19R WCI  -3
LONG PRAIRIE   FAIR       9   1  72 W10       30.22S WCI  -6
LITTLE FALLS   SUNNY      9   1  72 W9        30.23R WCI  -5
LITCHFIELD     MOSUNNY   10   7  85 W12       30.27R WCI  -4
BUFFALO        SUNNY     12   7  79 W10       30.27R WCI  -1
MAPLE LAKE     SUNNY     13   7  76 W9        30.25R WCI   1
$$
MNZ037-044-045-052-053-011600-
   East Central Minnesota

CITY           SKY/WX    TMP DP  RH WIND       PRES   REMARKS
PRINCETON      SUNNY     14   7  73 W10       30.23R WCI   1
MORA           SUNNY     18   7  62 W9        30.22R WCI   6
CAMBRIDGE      SUNNY     16   5  62 W12       30.21R WCI   3
RUSH CITY      CLOUDY    18  12  79 SW10      30.21R WCI   6
MOOSE LAKE     FLURRIES  16   7  67 CALM      30.15R
HINCKLEY       LGT SNOW  18  10  73 W8        30.19R WCI   7
CLOQUET        LGT SNOW  12   7  79 W10       30.11S WCI  -1
MCGREGOR       SUNNY     12   5  73 SW7       30.16R WCI   2
$$
MNZ071>073-080-081-089-090-097-098-011600-
   Southwest Minnesota

CITY           SKY/WX    TMP DP  RH WIND       PRES   REMARKS
MONTEVIDEO     MOSUNNY   12   7  79 CALM      30.30R
GRANITE FALLS  MOSUNNY   12   5  74 SW8       30.31R WCI   1
CANBY          PTSUNNY   14   6  69 W6        30.30R WCI   5
MARSHALL       PTSUNNY   16   5  62 W14       30.30R WCI   1
REDWOOD FALLS  MOSUNNY   13   4  67 W9        30.30R WCI   1
OLIVIA         MOSUNNY   14   9  79 W12       30.28S WCI   0
PIPESTONE      PTSUNNY   12   9  85 W6        30.27R WCI   3
WINDOM         PTSUNNY   16   9  73 W7        30.29R WCI   6
WORTHINGTON    CLOUDY    27   9  46 W8        30.30R WCI  18
JACKSON        PTSUNNY   18  10  73 W8        30.28R WCI   7
TRACY          PTSUNNY   17   8  70 SW7       30.29R WCI   7
SLAYTON        CLOUDY    14   7  72 CALM      30.29R
$$
MNZ065>067-074>077-082>085-091>093-011600-
   South Central Minnesota

CITY           SKY/WX    TMP DP  RH WIND       PRES   REMARKS
MANKATO        PTSUNNY   14   5  67 W10       30.30R WCI   1
NEW ULM        MOSUNNY   12   5  73 W13       30.31R WCI  -3
ST JAMES       FAIR      18  10  73 W9        30.32R WCI   6
FAIRMONT       PTSUNNY   16  12  86 W6        30.29R WCI   7
GLENCOE        MOSUNNY   12   7  78 W10       30.27S WCI  -1
FARIBAULT      MOSUNNY   16   7  67 W10       30.27R WCI   3
OWATONNA       MOSUNNY   18   9  68 W14       30.27R WCI   4
WASECA         MOSUNNY   18  10  73 W14       30.30R WCI   4
ALBERT LEA     MOSUNNY   16  14  93 W8        30.28R WCI   5
$$
MNZ078>079-086>088-094>096-011600-
   Southeast Minnesota

CITY           SKY/WX    TMP DP  RH WIND       PRES   REMARKS
ROCHESTER      CLOUDY    15  12  88 W15       30.25R FOG     WCI   0
RED WING       CLOUDY    18  12  79 W8        30.26R WCI   7
STANTON        MOSUNNY   18  11  74 W9        30.25R WCI   7
DODGE CENTER   CLOUDY    16  14  93 W15       30.24R WCI   1
WINONA         CLOUDY    18  12  79 SW3       30.30S
AUSTIN         LGT SNOW  16  14  93 W6        30.27R WCI   7
PRESTON        CLOUDY    16  14  92 W9        30.27R FOG     WCI   4
$$
ABBREVIATIONS USED IN REMARKS
   TC - TEMPERATURES IN CELSIUS
  WCI - WIND CHILL INDEX
   HX - HEAT INDEX
  VSB - VISIBILITY
$$



USA.gov is the U.S. government's official web portal to all federal, state and local government web resources and services.